Location: Monrovia
(34.7865°N, 86.7139°W)
Time: 00:28:26
(UTC+00:00)

Meteor 2-17 Rocket - Pass Details

Date: 14 July 2020
Orbit: 935 x 956 km, 82.5° (Epoch: 12 August)

Event Time Altitude Azimuth Distance (km) Brightness Sun altitude
Exits shadow 03:02:51 27° 180° (S) 1,699 5.4 -20.7°
Maximum altitude 03:06:17 83° 96° (E) 948 4.3 -21.1°
Drops below altitude 10° 03:12:21 10° 9° (N) 2,651 7.3 -21.9°
Sets 03:14:50 0° 8° (N) 3,599 8.1 -22.3°
